Fort Stockton, TX

2:31 AM CST on January 22, 2017 (GMT -0600)
Fort Stockton-Pecos County

Weather History for KFST - July, 2013

Change the Weather History Date:

Tuesday, July 30, 2013

  Actual Average Record
Temperature  
Mean Temperature 86 °F -  
Max Temperature 100 °F 93 °F 102 °F (1999)
Min Temperature 73 °F 69 °F 66 °F (2000)
Cooling Degree Days 20    
Growing Degree Days 36 (Base 50)    
Moisture  
Dew Point 63 °F    
Average Humidity 52    
Maximum Humidity 79    
Minimum Humidity 26    
Precipitation  
Precipitation 0.00 in - - ()
Sea Level Pressure  
Sea Level Pressure 29.92 in    
Wind  
Wind Speed 9 mph (SW)    
Max Wind Speed 24 mph    
Max Gust Speed 33 mph    
Visibility 10 miles    
Events      
Averages and records for this station are not official NWS values.
T = Trace of Precipitation, MM = Missing Value Source: NWS Daily Summary

Daily Weather History Graph

Daily Weather History Graph

Search for Another Location

Airport or City:

Trip Planner

Search our weather history database for the weather conditions in past years. The results will help you decide how hot, cold, wet, or windy it might be!

Date:

Astronomy

Jul. 30, 2013 Rise Set
Actual Time 7:07 AM CDT 8:47 PM CDT
Civil Twilight 6:41 AM CDT 9:14 PM CDT
Nautical Twilight 6:09 AM CDT 9:45 PM CDT
Astronomical Twilight 5:36 AM CDT 10:18 PM CDT
Moon 1:24 AM CDT (7/30) 3:11 PM CDT (7/30)
Length of Visible Light 14h 32m
Length of Day
13h 39m
Last Quarter, 41% of the Moon is Illuminated
Jul 30
Last Quarter
Aug 6
New
Aug 14
First Quarter
Aug 20
Full
Aug 28
Last Quarter

Hourly Weather History & Observations

Time (CDT) Temp. Heat Index Dew Point Humidity Pressure Visibility Wind Dir Wind Speed Gust Speed Precip Events Conditions
12:53 AM 75.9 °F - 66.0 °F 71% 29.89 in 10.0 mi South 11.5 mph - N/A   Clear
1:53 AM 73.9 °F - 66.0 °F 76% 29.90 in 10.0 mi South 8.1 mph - N/A   Clear
2:53 AM 73.9 °F - 66.9 °F 79% 29.90 in 10.0 mi SSW 8.1 mph - N/A   Clear
3:53 AM 75.0 °F - 66.9 °F 76% 29.91 in 10.0 mi South 5.8 mph - N/A   Clear
4:53 AM 75.0 °F - 66.9 °F 76% 29.92 in 10.0 mi South 8.1 mph - N/A   Clear
5:53 AM 75.0 °F - 66.9 °F 76% 29.94 in 10.0 mi South 8.1 mph - N/A   Clear
6:53 AM 75.0 °F - 66.9 °F 76% 29.95 in 10.0 mi SSW 8.1 mph - N/A   Clear
7:53 AM 75.0 °F - 66.9 °F 76% 29.96 in 10.0 mi SSW 9.2 mph - N/A   Clear
8:53 AM 80.1 °F 82.1 °F 66.0 °F 62% 29.96 in 10.0 mi SW 11.5 mph - N/A   Clear
9:53 AM 84.9 °F 87.1 °F 66.0 °F 53% 29.96 in 10.0 mi WSW 10.4 mph - N/A   Clear
10:53 AM 91.0 °F 91.5 °F 62.1 °F 38% 29.96 in 10.0 mi WSW 8.1 mph - N/A   Clear
11:53 AM 93.9 °F 93.2 °F 59.0 °F 31% 29.96 in 10.0 mi NNW 11.5 mph - N/A   Clear
12:53 PM 95.0 °F 93.7 °F 57.0 °F 28% 29.95 in 10.0 mi Variable 4.6 mph - N/A   Clear
1:53 PM 98.1 °F 98.1 °F 60.1 °F 28% 29.93 in 10.0 mi WNW 9.2 mph 16.1 mph N/A   Clear
2:53 PM 97.0 °F 96.5 °F 59.0 °F 28% 29.91 in 10.0 mi WNW 9.2 mph - N/A   Clear
3:53 PM 98.1 °F 97.2 °F 57.9 °F 26% 29.89 in 10.0 mi NW 8.1 mph - N/A   Clear
4:53 PM 97.0 °F 96.1 °F 57.9 °F 27% 29.87 in 10.0 mi NNW 3.5 mph - N/A   Clear
5:53 PM 87.1 °F 87.5 °F 62.1 °F 43% 29.89 in 10.0 mi SSE 13.8 mph 23.0 mph N/A   Clear
6:53 PM 86.0 °F 86.1 °F 61.0 °F 43% 29.89 in 10.0 mi South 10.4 mph - N/A   Clear
7:53 PM 84.0 °F 84.4 °F 61.0 °F 46% 29.92 in 10.0 mi SW 24.2 mph 33.4 mph N/A   Clear
8:53 PM 82.9 °F 83.2 °F 60.1 °F 46% 29.93 in 10.0 mi WSW 11.5 mph - N/A   Clear
9:53 PM 82.0 °F 82.4 °F 60.1 °F 47% 29.92 in 10.0 mi SW 9.2 mph - N/A   Clear
10:53 PM 80.1 °F 80.9 °F 60.1 °F 50% 29.94 in 10.0 mi SSE 4.6 mph - N/A   Clear
11:53 PM 78.1 °F - 61.0 °F 56% 29.95 in 10.0 mi SE 6.9 mph - N/A   Clear